STARLINK-1260, 45404

Orbit data source: Space-Track

STARLINK-1260, 45404 is a payload satellite owned by SpaceX/Seattle (US) in LEO that was launched on Wed, 18 Mar 2020 UTC via an FALCON 9 launch vehicle from the Air Force Eastern Test Range (AFETR). Payloads include a variety of satellites, spacecraft, and rockets equipped with specific instruments for various scientific and technological missions. These include communications satellites like Starlink; space stations such as the ISS; scientific satellites like the Hubble; Earth observation satellites from companies like Planet Labs, Umbra, and HawkEye 360; GPS; miniature CubeSats for education and research; and military/defense satellites.

Loading next visibility...
STARLINK-1260 details
Identifier
45404, 2020-019AW
Orbit
LEO
Last TLE update8 hours ago
Origin
Flag of USSpaceX/Seattle (US)
ManufacturerSpaceX/Seattle
MissionOperational Commercial Communications
Bus & MotorSTARLINK, Unknown motor
Mass260 kg wet, ~248 kg dry
Launch date (UTC)
2020-03-18 (5 years ago)
Launch vehicle
FALCON 9
Launch site
Air Force Eastern Test Range (AFETR)
Object type
Payload
Rocket body
Debris
Shape & HBRBox + 1 Pan, 8.86 m
Radar Cross Section13.562 m², Large (>1 m²)

Expand to show TLE details & history

TLE from 8 hours ago
0 STARLINK-1260
1 45404U 20019AW  24361.56197271  .00026060  00000-0  17616-2 0  9990
2 45404  53.0542 303.4479 0003025  72.4265 287.7054 15.06405561263821
Epoch: 2024-12-26T13:29Z
Definitive object data (Epoch: 2024-12-26T13:29:14.442Z)
Latitude-0.00002°
Longitude5.59812°
Altitude547.437 km
Speed7.59 km/s
True Right ascension20h 13m 47s
True Declination0° 00' 00"
Sunlit
Object was in daylight at TLE epoch
Visualization TLE readout
Latitude-28.99608°
Longitude-20.3506°
Altitude556.616 km
Speed7.583 km/s
Apparent Right ascension14h 55m 28s
Apparent Declination-66° 12' 09"
Sunlit
Object is in daylight
Visualization observer readout
Local Sidereal Time20:40:02
Azimuth209.239° SW
Elevation-34.491°
Doppler factor1
Orbital elements
Apogee altitude549.56 km
Perigee altitude545.37 km
Semi-major axis6,925.602 km
Eccentricity0.0003025
Inclination53.0542°
RAAN303.4479°
Arg. of periapsis72.4265°
True anomaly287.67237°
Mean anomaly287.7054°
Eccentric anomaly287.68889°
Mean motion3.7658 °/min
BSTAR0.0017616
Orbital period95.6 mins
Loading maneuver chart data...
Loading historical data...
Loading historical data...
Loading historical data...
Loading historical data...
Loading historical data...
Loading historical data...
Loading historical data...

STARLINK-1260 Visibility forecast

Observer location: undefined°, undefined

Span
Click to sort rows by Start time (UTC) header in descending order
Start Az.
Max El. time (UTC)
Max El. Az.
Max El.
End time (UTC)
End Az.
6 mins2024-12-26 23:14:04.219Z227.197° WSW2024-12-26 23:16:04.219Z219.863° SW43.26°2024-12-26 23:20:04.219Z51.014° ENE
4 mins2024-12-27 00:55:04.219Z309.658° NW2024-12-27 00:56:04.219Z329.32° NNW19.892°2024-12-27 00:59:04.219Z23.362° NE
5 mins2024-12-27 04:16:04.219Z344.709° N2024-12-27 04:18:04.219Z21.567° NNE19.244°2024-12-27 04:21:04.219Z69.796° E
7 mins2024-12-27 05:55:04.219Z311.453° NW2024-12-27 05:58:04.219Z48.496° ENE44.876°2024-12-27 06:02:04.219Z128.816° SE
|